Wind_Speed
10 10 11 11 12 12 12 13 13 14 15 15 15 15 16 16 17 17 17 18 18 19 19 19 20 20 20 20 20 20 20 20 20 20 20 20 20 20 20 20 20 20 20
10 11 11 12 12 13 13 13 14 15 15 16 16 17 17 17 18 18 18 19 19 19 19 20 20 21 21 21 22 22 22 22 21 21 21 21 21 21 21 22 22 22 22
9 10 11 12 12 13 13 14 14 15 16 16 17 17 18 18 18 18 19 19 19 20 20 20 21 21 21 22 22 23 23 23 22 22 22 22 22 22 23 23 23 23 23
9 10 11 12 12 13 13 14 15 15 16 16 17 17 18 18 19 19 20 20 20 21 21 21 22 22 22 23 23 23 23 23 23 23 23 24 24 24 24 24 24 25 25
9 10 11 12 12 13 14 15 15 15 16 16 17 17 18 18 19 19 20 20 20 21 21 22 22 22 23 23 23 24 24 24 25 24 24 25 25 25 26 26 26 26 26
10 11 12 13 13 14 15 15 16 16 17 17 17 18 18 19 19 20 20 21 21 22 22 22 22 22 23 23 24 24 25 25 26 26 26 26 26 26 27 27 27 28 28
11 12 13 13 14 15 15 16 16 17 17 18 19 19 19 19 20 20 21 21 22 22 22 22 23 23 24 24 24 25 25 25 26 26 26 27 27 27 28 28 28 29 29
12 13 13 14 14 15 16 16 17 17 17 18 19 19 20 20 21 21 21 22 22 23 23 23 24 24 25 25 26 26 26 27 27 27 27 28 28 29 29 29 30 30 30
13 14 14 15 15 16 17 17 17 18 18 19 19 20 20 21 21 21 22 22 23 23 24 24 25 25 25 26 27 27 28 28 28 29 29 30 30 30 31 31 31 32 32
14 15 15 16 16 17 17 18 18 18 19 19 20 20 21 21 22 22 23 23 24 24 25 25 25 26 27 27 28 28 28 29 29 30 30 31 31 31 32 32 33 33 34
15 16 16 16 17 18 18 19 19 19 20 20 21 21 21 21 22 23 24 24 24 25 25 26 26 27 27 28 28 29 29 29 30 30 31 31 32 32 32 33 33 34 35
17 17 17 18 18 18 19 19 20 20 21 21 22 22 22 23 23 23 24 25 25 25 26 26 27 27 28 28 28 29 29 30 30 30 31 32 32 33 33 33 34 34 35
18 19 19 19 19 19 19 20 20 21 21 22 22 22 23 23 24 24 25 25 26 26 26 27 27 28 28 28 29 29 30 30 30 31 31 32 33 33 34 34 35 35 36
20 20 20 20 20 21 21 21 21 21 22 22 23 23 24 24 25 25 25 26 26 27 27 28 28 29 29 29 29 30 30 31 31 31 32 33 33 34 34 35 36 36 37
21 21 21 21 21 22 22 22 22 22 23 23 24 24 25 25 26 26 26 27 27 27 28 28 29 29 30 30 31 31 31 32 32 32 33 33 34 34 35 36 36 37 37
22 22 23 23 23 23 23 23 23 23 24 24 25 25 25 26 26 26 27 27 28 28 29 29 30 30 30 31 31 32 32 33 33 34 34 35 35 36 37 37 38 38 39
23 23 24 24 24 24 24 24 24 24 25 25 25 26 26 26 27 27 27 28 29 29 30 30 31 31 31 32 32 33 33 34 35 35 36 37 37 38 38 39 40 41 41
25 25 25 25 26 26 25 26 26 26 25 26 26 27 27 28 28 28 28 29 30 30 31 31 32 32 33 33 34 35 35 36 36 37 38 38 39 40 40 41 42 43 44
26 26 26 26 27 27 27 26 26 27 27 27 27 28 28 29 29 30 30 30 31 31 32 32 33 34 34 35 35 36 36 37 38 39 39 40 41 42 42 43 44 45 45
27 27 27 27 27 27 28 27 28 28 28 28 29 29 29 30 30 31 31 31 32 33 33 34 34 35 36 36 36 37 38 39 40 40 41 42 43 43 44 44 45 45 46
28 28 28 28 28 28 28 28 29 29 29 30 30 30 30 31 31 32 33 33 34 34 35 36 36 37 38 38 38 39 40 41 41 42 43 44 44 45 45 46 46 47 48
29 29 29 29 29 29 29 30 30 30 30 31 31 32 32 32 33 33 34 35 35 36 37 37 38 39 40 41 41 41 41 41 42 43 44 45 46 46 47 48 48 49 50
30 30 30 30 30 30 31 31 31 32 32 32 32 33 33 34 34 35 35 36 37 38 39 39 40 41 42 42 43 43 43 43 42 42 44 45 46 47 48 49 50 51 51
30 31 31 31 31 31 32 32 33 33 33 33 34 34 35 35 35 36 36 37 39 40 40 41 42 43 43 44 44 45 46 47 47 45 45 46 47 48 49 51 52 53 54
31 31 31 32 32 32 33 33 33 34 34 35 35 36 36 36 37 37 38 39 40 41 42 43 44 45 45 46 46 47 48 49 50 50 49 48 49 50 51 53 54 55 57
31 31 32 32 32 33 33 34 34 35 35 36 36 37 37 37 38 39 39 40 41 43 44 45 46 46 47 48 49 50 50 51 52 53 53 53 53 53 55 56 58 59 60
Wind_Direction
275 276 279 279 280 281 282 284 285 286 287 288 288 288 288 289 289 290 289 289 289 288 287 286 285 284 283 282 280 279 278 277 277 277 276 276 276 274 273 272 272 271 270
281 281 282 281 281 282 283 285 286 287 288 289 289 289 289 289 288 289 289 289 289 287 286 285 284 283 283 282 281 280 279 278 277 276 275 274 273 273 272 271 271 271 270
287 285 285 286 285 285 286 287 288 289 289 289 290 290 290 290 290 290 289 289 289 288 287 286 285 283 283 282 281 280 280 279 278 277 275 274 273 273 272 271 270 270 270
294 291 290 290 291 290 290 290 290 291 291 291 290 290 290 291 290 290 290 290 289 288 287 286 285 284 283 282 281 280 279 279 278 278 276 275 274 273 272 271 270 269 269
298 295 294 294 293 293 293 293 293 292 292 292 292 292 291 291 291 290 289 289 289 288 287 285 284 283 282 281 280 279 278 278 278 277 276 275 274 273 272 271 270 270 269
301 298 296 296 295 294 294 293 293 292 292 292 293 293 293 292 291 290 289 289 289 289 288 286 284 283 283 282 281 280 279 279 278 278 277 276 275 274 274 273 272 271 271
302 299 298 297 296 296 296 296 295 294 294 293 293 293 292 293 292 291 290 290 290 289 288 287 285 284 283 283 282 281 281 280 279 279 278 277 276 276 275 275 274 273 272
303 301 299 298 297 296 296 297 296 296 295 295 295 294 293 293 292 291 290 290 290 290 289 288 287 286 285 283 282 282 281 281 280 279 278 277 276 276 276 275 275 274 274
306 303 301 300 300 299 298 297 297 297 297 297 296 296 295 294 293 291 291 291 290 290 289 288 287 286 285 285 284 283 282 281 280 279 279 278 278 277 276 276 275 275 274
305 303 301 302 302 302 300 299 298 298 298 297 297 297 296 295 294 293 293 292 291 291 289 288 287 287 286 285 285 284 283 283 282 281 280 280 279 278 278 277 276 276 275
303 303 301 301 302 302 300 299 299 299 299 299 298 298 297 296 295 294 294 293 293 292 291 290 289 288 288 287 286 285 285 284 283 282 281 281 280 280 279 278 278 277 276
301 302 301 301 302 302 301 300 299 300 300 300 299 299 298 297 296 295 294 294 293 293 292 291 291 290 289 288 288 287 286 285 285 284 283 282 281 281 280 279 279 278 277
300 300 300 300 301 302 302 301 301 301 301 300 299 299 300 299 297 296 295 294 294 294 293 293 292 292 291 290 289 288 288 287 286 285 284 284 283 282 281 280 280 279 278
298 299 299 300 300 300 301 302 301 300 300 300 299 299 299 299 298 297 296 295 295 295 295 294 293 292 292 291 290 289 289 288 287 286 286 285 284 284 283 282 281 280 279
295 296 297 299 299 300 300 300 300 299 300 300 300 300 300 299 299 298 297 296 296 296 296 295 294 293 293 292 291 290 290 289 288 287 287 286 286 285 284 283 283 282 281
294 295 296 297 297 298 299 299 299 299 300 300 300 300 300 300 300 298 297 297 297 297 297 296 296 295 294 294 293 292 291 290 289 288 288 287 287 286 285 284 283 282 281
293 293 295 295 295 296 296 297 298 298 298 299 299 300 300 300 300 299 298 298 297 297 297 297 297 296 296 295 295 294 293 292 291 290 290 289 288 288 287 286 285 284 283
292 292 293 294 294 293 294 295 296 296 296 297 297 298 299 299 299 299 299 299 298 298 298 298 298 297 297 296 296 295 294 294 293 292 291 290 290 289 288 287 286 285 284
291 292 292 292 292 292 293 293 295 295 295 296 296 297 297 298 298 299 299 299 299 298 298 298 298 297 297 297 296 296 295 294 294 293 292 291 291 290 289 288 287 286 285
290 291 291 291 291 292 292 292 293 294 294 294 295 296 297 297 297 297 297 298 298 299 299 298 298 298 298 297 297 296 296 295 295 294 293 293 292 291 290 289 288 287 286
290 290 290 289 290 291 291 291 291 292 293 294 294 295 296 296 296 296 297 297 298 298 299 299 298 298 298 298 297 296 296 296 295 295 294 294 293 293 292 291 289 288 287
289 289 289 289 288 289 289 290 291 291 292 293 293 293 294 295 296 296 297 298 298 298 299 299 299 299 298 298 297 296 295 294 294 295 294 294 294 293 292 291 290 289 288
289 288 288 288 288 288 288 289 290 290 292 292 293 293 294 295 296 297 297 297 298 298 299 299 299 299 299 299 298 297 296 294 293 294 294 294 294 293 292 291 291 290 289
289 288 288 288 288 287 288 288 289 290 291 292 293 293 294 295 296 296 297 297 298 298 299 299 299 299 299 299 299 298 298 297 296 294 294 294 293 293 292 291 291 290 289
289 288 288 288 288 287 288 288 289 289 290 291 292 293 294 294 295 296 297 297 298 299 299 300 300 300 300 300 300 299 299 298 298 297 296 295 295 294 293 292 291 290 289
290 289 288 288 288 288 288 288 289 289 290 291 292 292 293 294 295 296 296 297 298 299 299 300 301 301 301 301 301 300 300 299 298 298 297 297 296 295 294 293 292 291 290
Height
5873 5873 5873 5874 5874 5874 5874 5874 5874 5874 5873 5873 5873 5873 5872 5872 5872 5871 5871 5871 5870 5870 5869 5869 5868 5868 5868 5867 5867 5867 5866 5866 5866 5866 5866 5865 5865 5865 5865 5865 5865 5865 5865
5871 5871 5871 5872 5872 5872 5872 5872 5872 5872 5871 5871 5871 5870 5870 5869 5869 5868 5868 5868 5867 5867 5866 5866 5865 5865 5864 5864 5863 5863 5863 5862 5862 5862 5862 5862 5861 5861 5861 5861 5861 5861 5861
5870 5870 5870 5870 5870 5870 5870 5870 5870 5869 5869 5868 5868 5867 5867 5866 5866 5865 5865 5864 5864 5863 5863 5862 5862 5861 5861 5860 5860 5859 5859 5858 5858 5858 5858 5857 5857 5857 5857 5856 5856 5856 5856
5868 5868 5868 5868 5868 5868 5868 5867 5867 5867 5866 5866 5865 5865 5864 5863 5863 5862 5862 5861 5860 5860 5859 5858 5858 5857 5857 5856 5856 5855 5855 5854 5854 5854 5853 5853 5853 5852 5852 5852 5852 5852 5851
5867 5867 5867 5866 5866 5866 5865 5865 5864 5864 5863 5863 5862 5862 5861 5860 5859 5859 5858 5857 5857 5856 5855 5855 5854 5853 5853 5852 5851 5851 5850 5850 5849 5849 5849 5848 5848 5847 5847 5847 5847 5846 5846
5866 5865 5865 5864 5864 5864 5863 5863 5862 5861 5861 5860 5859 5859 5858 5857 5856 5855 5855 5854 5853 5852 5852 5851 5850 5849 5848 5848 5847 5846 5846 5845 5845 5844 5844 5843 5843 5842 5842 5842 5841 5841 5841
5864 5864 5863 5863 5862 5861 5861 5860 5859 5859 5858 5857 5856 5855 5854 5854 5853 5852 5851 5850 5849 5848 5848 5847 5846 5845 5844 5843 5843 5842 5841 5841 5840 5840 5839 5838 5838 5837 5836 5836 5836 5835 5835
5863 5862 5861 5860 5860 5859 5858 5857 5857 5856 5855 5854 5853 5852 5851 5850 5849 5848 5847 5846 5845 5844 5843 5843 5842 5841 5840 5839 5838 5838 5837 5836 5835 5835 5834 5833 5833 5832 5831 5830 5830 5829 5829
5861 5860 5859 5858 5857 5856 5855 5854 5854 5852 5852 5850 5849 5848 5847 5846 5845 5845 5844 5842 5841 5840 5839 5838 5837 5836 5835 5834 5833 5833 5832 5831 5830 5829 5828 5827 5827 5826 5825 5824 5824 5823 5823
5858 5858 5857 5856 5855 5854 5853 5851 5850 5849 5848 5847 5846 5845 5844 5843 5842 5840 5839 5838 5837 5836 5835 5834 5832 5831 5830 5829 5828 5827 5826 5825 5824 5823 5822 5821 5820 5820 5819 5818 5817 5817 5816
5856 5855 5854 5853 5852 5851 5850 5848 5847 5846 5845 5843 5842 5841 5840 5839 5837 5836 5835 5834 5833 5831 5830 5829 5828 5826 5825 5824 5823 5822 5820 5819 5818 5817 5816 5815 5814 5813 5812 5811 5810 5809 5809
5853 5852 5851 5850 5849 5848 5846 5845 5844 5842 5841 5840 5838 5837 5836 5835 5833 5832 5830 5829 5828 5826 5825 5824 5822 5821 5820 5818 5817 5816 5815 5813 5812 5811 5810 5808 5807 5806 5805 5804 5803 5802 5801
5850 5849 5848 5847 5846 5844 5843 5841 5840 5838 5837 5836 5834 5833 5831 5830 5829 5827 5826 5824 5823 5821 5820 5819 5817 5816 5814 5813 5811 5810 5809 5807 5806 5805 5803 5802 5800 5799 5798 5797 5796 5794 5793
5847 5846 5845 5843 5842 5841 5839 5838 5836 5835 5833 5832 5830 5829 5827 5825 5824 5822 5821 5819 5818 5816 5815 5813 5812 5810 5808 5807 5806 5804 5803 5801 5800 5798 5797 5795 5793 5792 5790 5789 5788 5786 5785
5844 5843 5841 5840 5838 5837 5835 5834 5832 5831 5829 5827 5826 5824 5822 5821 5819 5817 5816 5814 5813 5811 5809 5808 5806 5804 5802 5801 5799 5797 5796 5794 5793 5791 5789 5788 5786 5784 5783 5781 5779 5778 5777
5840 5839 5837 5836 5834 5833 5831 5830 5828 5826 5825 5823 5821 5819 5818 5816 5814 5812 5811 5809 5807 5805 5803 5802 5800 5798 5796 5794 5792 5791 5789 5787 5785 5783 5782 5780 5778 5776 5774 5772 5771 5769 5768
5836 5835 5833 5831 5830 5828 5827 5825 5823 5822 5820 5818 5816 5814 5813 5811 5809 5807 5805 5803 5801 5799 5797 5795 5793 5791 5790 5788 5786 5783 5781 5779 5777 5775 5773 5772 5770 5767 5765 5763 5761 5760 5758
5831 5830 5828 5826 5825 5823 5822 5820 5818 5817 5815 5813 5811 5809 5807 5805 5803 5801 5799 5797 5795 5793 5791 5789 5787 5785 5783 5781 5778 5776 5774 5771 5769 5767 5764 5762 5760 5758 5756 5753 5751 5749 5747
5826 5825 5823 5822 5820 5818 5817 5815 5813 5812 5810 5808 5806 5804 5802 5800 5798 5795 5793 5791 5789 5787 5784 5782 5780 5778 5775 5773 5771 5768 5765 5763 5760 5758 5755 5752 5750 5748 5746 5743 5741 5738 5736
5821 5819 5818 5816 5814 5813 5811 5810 5808 5806 5804 5802 5800 5798 5796 5794 5792 5789 5787 5785 5782 5780 5777 5775 5772 5770 5767 5765 5762 5760 5757 5754 5751 5748 5745 5743 5740 5737 5734 5732 5729 5727 5724
5815 5814 5812 5811 5809 5807 5806 5804 5802 5800 5798 5796 5794 5792 5790 5788 5785 5783 5780 5778 5775 5773 5770 5767 5765 5762 5759 5756 5754 5751 5748 5745 5742 5739 5735 5732 5729 5726 5723 5720 5717 5715 5712
5809 5808 5806 5805 5803 5801 5800 5798 5796 5794 5792 5790 5788 5785 5783 5781 5778 5776 5773 5770 5768 5765 5762 5759 5756 5753 5750 5747 5744 5742 5740 5737 5733 5729 5725 5721 5718 5715 5712 5708 5705 5702 5699
5803 5801 5800 5799 5797 5795 5793 5791 5789 5788 5785 5783 5781 5779 5776 5773 5771 5768 5765 5763 5760 5757 5754 5750 5747 5744 5741 5737 5733 5730 5728 5726 5724 5721 5716 5711 5707 5704 5700 5696 5693 5689 5686
5797 5795 5793 5792 5790 5788 5786 5784 5783 5781 5779 5776 5774 5771 5769 5766 5763 5760 5757 5754 5751 5748 5745 5741 5738 5734 5731 5727 5724 5719 5716 5712 5709 5709 5706 5701 5696 5692 5688 5684 5680 5675 5671
5790 5788 5786 5785 5783 5781 5779 5777 5775 5773 5771 5769 5766 5764 5761 5758 5755 5752 5749 5746 5742 5739 5735 5732 5728 5724 5721 5717 5713 5709 5704 5700 5695 5693 5691 5688 5684 5679 5674 5670 5666 5661 5656
5783 5781 5779 5777 5776 5774 5772 5770 5768 5765 5763 5761 5758 5755 5753 5750 5746 5743 5740 5736 5733 5729 5726 5722 5718 5714 5710 5706 5701 5696 5692 5688 5683 5678 5676 5673 5670 5666 5660 5655 5650 5645 5640